Regional Weather Roundup
Issued by NWS

Home | Current Version | Previous Version | Graphics & Text | Print | Product List | Glossary On
Versions: 1 2 3 4 5 6 7 8 9 10 11 12 13 14 15 16 17 18 19 20 21 22 23 24 25 26 27 28 29 30 31 32 33 34 35 36 37 38 39 40 41 42 43 44 45 46 47 48 49 50
000
ASUS43 KFSD 292202
RWRSD

WEATHER ROUNDUP FOR SOUTH DAKOTA
NATIONAL WEATHER SERVICE SIOUX FALLS SD
500 PM CDT WED JUL 29 2015

NOTE: "FAIR" INDICATES FEW OR NO CLOUDS BELOW 12,000 FEET WITH NO
SIGNIFICANT WEATHER AND/OR OBSTRUCTIONS TO VISIBILITY.


SDZ001>005-009-010-012>017-292300-
NORTHWEST AND NORTH CENTRAL SOUTH DAKOTA

CITY           SKY/WX    TMP DP  RH WIND       PRES   REMARKS
BUFFALO          N/A     82  37  20 W23G29    30.10F
FAITH            N/A     85  33  15 W22G48    30.13F
MOBRIDGE       MOSUNNY   84  50  30 NW17      30.05S
$$

SDZ012>016-024>037-041>051-057-063-072>074-292300-
SOUTHWEST AND SOUTH CENTRAL SOUTH DAKOTA

CITY           SKY/WX    TMP DP  RH WIND       PRES   REMARKS
RAPID CTY ARPT SUNNY     82  43  25 CALM      30.19F
PIERRE         SUNNY     87  38  17 NW20G28   30.08F
CUSTER         SUNNY     73  35  25 W13       30.33F
ELLSWORTH AFB  SUNNY     82  42  24 NE5       30.18F
PHILIP         SUNNY     86  44  23 NW13      30.13F
PINE RIDGE     MOSUNNY   83  47  28 SW5       30.21F
WINNER         FAIR      88  42  20 NW15      30.14F
$$

SDZ004>011-016>023-039-040-292300-
NORTHEAST SOUTH DAKOTA

CITY           SKY/WX    TMP DP  RH WIND       PRES   REMARKS
ABERDEEN       MOSUNNY   85  49  28 NW21G29   30.02S
WATERTOWN      MOSUNNY   81  51  35 W20G35    30.04F
BROOKINGS      SUNNY     81  52  36 W18G24    30.08S
SISSETON         N/A     81  53  37 NW21G26   29.97R
$$

SDZ017-020-022-023-036>040-048>070-292300-
SOUTHEAST SOUTH DAKOTA

CITY           SKY/WX    TMP DP  RH WIND       PRES   REMARKS
SIOUX FALLS    MOSUNNY   83  51  33 W13G24    30.08F
HURON          SUNNY     85  48  27 NW18      30.05F
MITCHELL       SUNNY     86  49  27 NW21      30.08F
YANKTON        SUNNY     84  52  32 W15       30.10S
$$

ABBREVIATIONS USED IN REMARKS
   TC - TEMPERATURE IN CELSIUS
  WCI - WIND CHILL INDEX
   HX - HEAT INDEX
  VSB - VISIBILITY



USA.gov is the U.S. government's official web portal to all federal, state and local government web resources and services.